Location: Mentone
(34.5413°N, 85.5351°W)
Time: 20:18:09
(UTC-05:00)

UOSAT-12 - Visible Passes

Search period start: 30 July 2014 00:00
Search period end: 09 August 2014 00:00
Orbit: 595 x 663 km, 64.6° (Epoch: 30 July)

Date Brightness Start Highest point End Pass type
(mag) Time Alt. Az. Time Alt. Az. Time Alt. Az.
30 Jul 9.7 00:01:29 10° NW 00:02:35 16° NW 00:02:35 16° NW visible
30 Jul 8.5 22:41:56 10° NNW 22:45:08 34° NNE 22:45:08 34° NNE visible
31 Jul 9.4 21:24:26 10° NNE 21:26:19 12° NE 21:27:43 11° ENE visible
31 Jul 8.7 23:02:19 10° NNW 23:05:03 35° NW 23:05:03 35° NW visible
01 Aug 8.6 21:43:26 10° N 21:47:18 25° NE 21:47:41 24° ENE visible
01 Aug 9.4 23:23:16 10° NW 23:25:01 20° WNW 23:25:01 20° WNW visible
02 Aug 7.6 22:03:26 10° NNW 22:07:42 52° NE 22:07:42 52° NE visible
03 Aug 9.3 20:45:24 10° NNE 20:48:03 15° NE 20:50:26 11° ENE visible
03 Aug 7.8 22:23:58 10° NW 22:27:46 52° WNW 22:27:46 52° WNW visible
04 Aug 8.3 21:04:50 10° N 21:08:59 30° NE 21:10:33 24° E visible
04 Aug 9.1 22:45:06 10° NW 22:47:54 24° W 22:47:54 24° W visible
05 Aug 7.2 21:24:59 10° NNW 21:29:42 68° ENE 21:30:44 50° ESE visible
06 Aug 9.0 20:06:35 10° N 20:09:46 18° NE 20:12:56 10° E visible
06 Aug 7.7 21:45:38 10° NW 21:50:12 50° WSW 21:50:59 45° SSW visible
07 Aug 8.0 20:26:16 10° NNW 20:30:38 36° NE 20:33:57 16° ESE visible
07 Aug 9.1 22:07:02 10° WNW 22:10:31 21° WSW 22:11:18 20° SW visible
08 Aug 7.1 20:46:33 10° NNW 20:51:17 85° ENE 20:54:20 22° SSE visible
